SCP
0 0 0 0 0 0 0 0 0 0 0 0 0 0 0 0 0 0 0 0 0 0 0 0 0 0 0 0 0 0 0 0 0 0 0 0 0 0 0 0 0 0 0 0
0 0 0 0 0 0 0 0 0 0 0 0 0 0 0 0 0 0 0 0 0 0 0 0 0 0 0 0 0 0 0 0 0 0 0 0 0 0 0 0 0 0 0 0
0 0 0 0 0 0 0 0 0 0 0 0 0 0 0 0 0 0 0 0 0 0 0 0 0 0 0 0 0 0 0 0 0 0 0 0 0 0 0 0 0 0 0 0
0 0 0 0 0 0 0 0 0 0 0 0 0 0 0 0 0 0 0 0 0 0 0 0 0 0 0 0 0 0 0 0 0 0 0 0 0 0 0 0 0 0 0 0
0 0 0 0 0 0 0 0 0 0 0 0 0 0 0 0 0 0 0 0 0 0 0 0 0 0 0 0 0 0 0 0 0 0 0 0 0 0 0 0 0 0 0 0
0 0 0 -0 0 0 0 0 0 0 0 0 0 0 0 0 0 0 0 0 0 0 0 0 0 0 0 0 0 0 0 0 0 0 0 0 0 0 0 0 0 0 0 0
0 0 0 0 0 0 0 -0 0 0 0 0 0 0 0 0 0 0 0 0 0 0 0 0 0 0 0 0 0 0 0 0 0 0 0 0 0 0 0 0 0 0 0 0
0 0 0 0 0 0 0 0 0 0 0 0 0 0 0 0 0 0 0 0 0 0 0 0 0 0 0 0 0 0 0 0 0 0 0 0 0 0 0 0 0 0 0 0
0 0 0 0 0 0 0 0 0 0 0 0 0 0 0 0 0 0 0 0 0 0 0 0 0 0 0 0 0 0 0 0 0 0 0 0 0 0 0 0 0 0 0 0
0 0 0 0 0 0 0 0 0 0 0 0 0 0 0 0 0 0 0 0 0 0 0 0 0 0 0 0 0 0 0 0 0 0 0 0 0 0 0 0 0 0 0 0
0 0 0 0 0 0 0 0 0 0 0 0 0 0 0 0 0 0 0 0 0 0 0 0 0 0 0 0 0 0 0 0 0 0 0 0 0 0 0 0 0 0 0 0
0 0 0 0 0 0 0 0 0 0 0 0 0 0 0 0 0 0 0 0 0 0 0 0 0 0 0 0 0 0 0 0 0 0 0 0 0 0 0 0 0 0 0 0
0 0 0 0 0 0 0 0 0 0 0 0 0 0 0 0 0 0 0 0 0 0 0 0 0 0 0 0 0 0 0 0 0 0 0 0 0 0 0 0 0 0 0 0
0 0 0 0 0 0 0 0 0 0 0 0 0 0 0 0 0 0 0 0 0 0 0 0 0 0 0 0 0 0 0 0 0 0 0 0 0 0 0 0 0 0 0 0
0 0 0 0 0 0 0 0 0 0 0 0 0 0 0 0 0 0 0 0 0 0 0 0 0 0 0 0 0 0 0 0 0 0 0 0 0 0 0 0 0 0 0 0
0 0 0 0 0 0 0 0 0 0 0 0 0 0 0 0 0 0 0 0 0 0 0 0 0 0 0 0 0 0 0 0 0 0 0 0 0 0 0 0 0 0 0 0
0 0 0 0 0 0 0 0 0 0 0 0 0 0 0 0 0 0 0 0 0 0 0 0 0 0 0 0 0 0 0 0 0 0 0 0 0 0 0 0 0 0 0 0
0 0 0 0 -0 0 0 0 0 0 0 0 -0 -0 0 0 0 0 0 0 0 0 0 0 0 0 0 0 0 0 0 0 0 0 0 0 0 0 0 0 0 0 0 0
0 -0 0 -0 0 0 0 0 0 0 -0 -0 -0 0 0 0 0 0 0 0 0 0 0 0 0 0 0 0 0 0 0 0 0 0 0 0 0 0 0 0 0 0 0 0
0 0 0 0 0 0 0 0 0 0 -0 -0 -0 -0 0 0 0 0 0 0 0 0 0 0 0 0 0 0 0 0 0 0 0 0 0 0 0 0 0 0 0 0 0 0
0 0 0 0 0 0 0 0 0 -0 -0 -0 -0 -0 0 0 0 0 0 0 0 0 0 0 0 0 0 0 0 0 0 0 0 0 0 0 0 0 0 0 0 0 0 0
0 0 0 0 0 0 0 0 0 -0 -0 -0 -0 0 0 0 0 0 0 0 0 0 0 0 0 0 0 0 0 0 0 0 0 0 0 0 0 0 0 0 0 0 0 0
0 0 0 0 0 0 0 0 0 -0 -0 -0 -0 0 0 0 0 0 0 0 0 0 0 0 0 0 0 0 -0 0 0 0 0 0 0 0 0 0 0 0 0 0 0 0
0 0 0 0 0 0 0 0 0 -0 -0 -0 0 0 0 0 0 0 0 0 0 0 0 0 0 0 0 0 0 0 0 0 0 0 0 0 0 0 0 0 0 0 0 0
0 0 0 0 0 0 0 0 0 -0 -0 0 0 0 0 0 0 0 0 0 0 0 0 0 0 0 0 0 0 0 0 0 0 0 0 0 0 0 0 0 0 0 0 0
0 0 0 0 0 0 0 0 0 0 0 0 0 0 0 0 0 0 0 0 0 0 0 0 0 0 0 0 0 0 0 0 0 0 0 0 0 0 0 0 0 0 0 0
0 0 0 0 0 0 0 0 0 0 0 0 0 0 0 0 0 0 0 0 0 0 0 0 0 0 0 0 0 0 0 0 0 0 0 0 0 0 0 0 0 0 0 0
Wind_Speed_500mb
18 15 6 5 8 16 15 11 11 14 18 20 16 20 23 34 38 45 51 55 58 61 62 65 68 61 52 44 33 27 23 18 10 9 14 14 11 13 12 15 24 27 26 24
10 12 16 11 9 13 12 9 14 7 14 13 9 22 30 42 48 51 51 54 57 59 62 63 63 60 52 44 35 30 25 16 12 13 18 15 12 11 10 15 23 28 25 23
14 7 12 6 14 14 10 6 9 10 14 8 5 11 33 47 54 56 53 53 57 61 61 61 61 59 51 43 34 29 25 18 13 20 22 16 14 13 17 22 23 25 23 19
5 7 6 13 3 7 9 9 15 8 11 13 4 15 23 38 48 51 48 46 49 57 58 58 58 56 49 38 31 28 27 20 16 25 21 15 13 14 19 17 21 20 21 18
10 8 7 1 8 12 11 14 14 12 5 4 6 1 13 28 38 41 38 38 44 49 54 58 60 55 48 38 31 31 30 21 19 24 20 16 16 16 18 19 22 16 20 21
6 11 12 15 6 7 7 7 15 18 13 12 16 3 11 26 36 40 43 41 43 50 52 52 56 50 41 38 31 33 29 23 17 16 15 17 19 21 19 20 19 20 21 20
4 5 11 9 5 6 9 17 8 30 18 30 12 14 14 16 36 38 38 38 40 37 42 43 47 47 42 33 27 22 25 22 24 16 17 17 16 23 19 15 16 16 18 16
4 7 2 7 9 14 9 9 9 11 17 30 27 10 11 16 26 32 36 37 32 33 36 39 44 42 32 24 16 24 26 25 21 22 20 18 19 19 16 15 12 16 15 16
10 9 7 8 12 17 17 7 6 7 4 18 24 18 18 21 23 28 31 31 30 32 38 44 41 31 22 18 24 29 31 27 21 21 20 20 24 15 4 5 6 11 13 19
7 5 9 12 12 12 11 11 7 4 8 17 24 22 18 19 22 27 29 31 35 42 49 45 35 23 14 18 23 24 26 23 21 21 23 23 15 14 12 14 13 15 17 23
6 13 14 7 4 7 1 8 12 18 16 18 16 17 19 23 27 30 35 41 45 45 39 30 24 21 21 17 13 17 21 26 20 16 13 12 12 11 11 15 14 16 19 22
8 7 2 5 10 2 4 10 17 20 23 23 16 18 24 29 31 40 48 49 44 33 26 25 24 23 20 13 6 10 20 20 15 11 14 13 10 8 12 11 12 16 21 26
4 7 19 25 19 4 7 15 20 24 20 25 23 20 28 41 45 46 43 39 29 29 28 24 20 24 18 9 6 10 16 12 14 13 14 12 12 6 13 10 11 15 17 20
21 15 15 8 8 7 13 20 22 25 25 25 24 30 37 43 44 37 32 28 29 28 25 19 21 21 17 11 12 10 8 12 12 15 9 8 9 7 12 10 14 17 22 20
18 16 10 18 11 14 24 29 28 27 27 30 30 36 37 39 37 31 32 30 28 25 21 18 20 20 14 7 5 7 2 3 10 14 10 8 7 10 10 14 17 21 24 23
8 18 17 18 7 18 31 31 27 31 31 33 35 36 34 32 33 34 32 28 26 22 17 16 16 13 8 11 10 5 7 9 8 11 15 7 12 14 13 21 21 21 21 25
18 8 12 11 6 25 31 22 19 28 32 33 37 38 36 36 33 32 29 26 20 15 12 11 11 14 15 10 7 7 8 9 6 10 6 11 13 16 19 21 24 22 25 23
22 28 10 1 15 30 24 24 27 22 28 33 37 37 36 34 30 32 28 24 22 18 14 12 13 11 11 12 11 10 11 15 13 13 9 10 13 18 23 19 19 27 21 12
26 15 7 9 6 21 24 27 25 21 28 33 37 37 33 30 29 29 25 22 17 11 9 11 10 8 9 10 9 8 8 12 14 13 15 15 14 21 19 20 21 19 11 12
33 27 20 10 11 21 24 26 23 26 31 34 37 37 36 32 29 27 22 16 11 8 9 8 4 6 10 9 9 12 10 8 8 11 14 17 21 21 26 20 19 18 19 16
33 33 35 19 17 22 24 24 27 31 32 33 34 35 33 31 29 26 25 17 15 12 10 7 6 10 5 4 7 8 7 3 10 14 17 23 25 23 21 17 23 25 18 9
16 30 29 23 25 29 29 28 32 34 33 36 33 31 34 34 34 27 14 13 14 9 6 4 3 7 2 2 3 5 3 8 16 20 15 17 22 27 25 22 26 16 14 11
29 33 27 26 20 30 38 38 37 31 36 37 34 30 33 32 29 23 21 21 10 3 2 2 4 3 9 12 7 2 11 19 12 11 16 23 29 30 27 24 26 25 17 22
33 38 41 26 33 41 47 45 36 30 34 34 30 29 32 36 28 22 18 13 5 2 4 2 3 5 10 9 1 8 12 11 11 19 25 27 28 27 26 28 32 32 25 9
35 38 37 40 46 46 46 48 43 41 40 38 34 32 31 21 21 28 18 8 4 2 4 1 14 16 16 15 12 13 15 17 22 26 22 16 25 33 32 21 30 5 3 1
35 37 41 53 52 52 53 53 52 50 47 45 41 40 30 33 28 20 17 7 7 15 15 27 26 20 14 9 6 8 15 23 27 30 18 22 24 29 30 30 11 10 9 10
27 42 54 60 56 57 57 56 58 55 48 49 51 44 37 33 24 16 12 8 18 18 20 22 13 6 8 11 12 16 25 32 23 20 19 16 21 27 28 20 14 18 18 17
Wind_Direction_500mb
216 195 198 127 146 160 180 187 166 251 203 249 254 224 190 185 178 181 190 198 204 205 204 205 208 210 207 210 213 219 224 224 259 244 204 205 236 269 286 320 330 328 327 329
250 167 194 227 228 186 218 182 245 243 274 241 286 152 169 188 184 184 197 203 206 211 209 207 210 210 208 211 215 219 220 222 259 225 199 215 238 262 297 320 330 331 330 324
250 168 114 338 211 199 213 189 151 189 232 157 267 230 191 192 201 203 207 207 210 214 213 212 213 208 211 210 213 215 213 218 250 209 209 228 252 278 296 303 321 334 335 336
176 86 153 239 5 211 194 210 206 256 243 205 271 246 243 221 210 212 214 215 219 220 218 218 216 208 208 209 208 215 209 220 219 211 218 234 265 286 299 319 321 333 348 331
147 157 268 102 200 177 168 237 201 218 187 156 112 347 285 231 229 228 222 222 224 223 221 219 214 207 203 205 208 207 210 213 208 210 217 242 270 297 303 323 320 320 330 323
153 124 179 231 217 163 95 306 234 197 187 159 142 123 250 220 218 222 225 222 218 219 218 215 209 199 205 203 212 214 211 207 195 197 234 257 267 290 290 310 318 324 326 324
126 132 277 241 222 120 109 241 291 203 201 173 189 214 291 231 211 218 222 216 216 216 217 214 197 195 198 207 223 221 208 208 211 230 248 267 274 298 286 297 317 321 332 332
97 84 201 165 96 157 219 286 265 218 207 209 208 240 234 192 200 207 208 204 207 203 200 193 191 192 196 214 213 203 205 211 234 241 252 261 280 289 294 285 292 323 327 341
167 219 289 250 241 272 280 252 249 235 218 181 189 167 154 170 184 189 197 193 193 192 178 172 176 187 201 199 198 199 205 218 233 235 249 270 283 255 260 283 291 319 341 337
50 254 252 284 270 262 254 249 184 170 151 165 162 144 148 159 166 169 174 175 168 165 160 162 173 182 176 187 190 205 222 222 223 238 255 269 251 231 254 273 293 297 318 331
271 284 287 255 342 311 92 165 140 113 112 145 142 139 142 146 151 157 153 150 152 157 158 162 168 165 160 168 195 208 212 216 226 248 243 215 206 252 267 281 309 324 319 313
212 265 230 285 328 21 146 144 123 98 121 126 111 127 139 135 141 146 145 147 150 147 149 149 148 155 159 168 200 215 205 209 225 209 193 210 254 270 295 276 262 284 288 312
286 356 295 296 314 251 193 152 128 107 113 127 115 123 134 132 140 145 146 148 146 137 134 135 142 158 159 143 113 160 186 209 199 202 213 250 281 265 296 277 313 320 312 312
288 285 302 314 308 202 186 148 132 119 117 114 117 133 138 138 143 146 146 141 139 138 137 136 146 156 163 151 139 128 167 206 221 209 231 261 267 308 308 313 313 324 321 312
264 241 231 324 309 187 171 151 136 134 134 134 136 140 145 142 141 140 144 146 153 153 148 149 155 164 169 176 207 192 259 341 222 205 253 253 280 277 304 313 321 326 327 326
337 242 261 272 200 185 172 154 147 150 148 145 146 150 143 136 139 145 149 157 167 171 167 162 157 173 190 231 214 250 238 226 249 248 258 245 256 291 298 306 310 314 323 329
220 222 228 181 184 196 189 156 155 153 155 155 162 156 149 150 147 150 157 165 165 149 158 176 177 199 212 234 216 254 237 219 269 271 256 257 274 285 305 313 298 309 315 332
250 245 235 166 192 193 178 179 169 153 164 167 170 166 163 163 157 157 161 161 167 179 194 205 207 227 238 219 232 241 245 241 253 259 276 287 277 285 308 315 334 324 326 351
262 240 232 239 247 197 189 176 169 171 172 177 175 174 168 165 160 161 165 168 176 189 205 202 216 231 197 191 239 249 269 249 237 252 258 284 270 278 317 324 317 328 332 336
253 246 243 225 175 181 180 176 172 173 173 175 174 169 169 168 168 167 163 155 146 150 146 155 147 160 176 189 220 246 270 242 240 264 261 266 290 299 310 315 321 326 323 323
257 250 232 220 180 173 181 177 170 168 168 173 170 168 167 166 170 166 161 163 146 127 124 135 117 144 143 244 262 273 241 282 306 293 280 282 297 311 313 307 316 306 287 249
245 214 219 199 178 174 171 169 166 163 162 165 164 158 163 166 166 157 148 150 127 97 74 143 129 184 248 321 255 230 238 282 300 299 318 332 328 314 316 299 303 321 282 261
220 219 220 194 189 178 169 167 164 166 162 162 160 158 164 167 165 160 159 157 132 38 37 212 217 272 292 288 203 165 303 321 316 2 341 310 314 312 299 291 281 280 264 258
233 216 210 216 187 176 168 163 162 165 161 161 162 156 163 160 154 150 141 145 158 75 322 227 174 96 91 82 9 327 36 25 345 340 325 324 317 332 305 311 295 297 299 309
226 220 210 200 187 179 171 161 161 167 167 162 153 154 154 157 146 141 153 141 114 56 6 191 133 117 88 71 57 23 347 329 322 319 311 334 336 319 317 314 304 280 17 49
221 213 199 197 187 177 171 165 165 167 165 160 152 148 150 147 137 146 151 110 78 91 84 126 122 101 76 65 12 347 347 353 352 336 349 345 328 352 9 6 15 41 58 23
203 202 191 184 179 175 171 167 167 166 165 157 149 149 150 153 147 138 134 123 134 114 102 132 135 72 9 344 348 3 1 344 352 354 355 21 29 31 9 10 29 50 33 5
Wind_Speed_850mb
18 15 6 5 8 16 15 11 11 14 18 20 16 20 23 34 38 45 51 55 58 61 62 65 68 61 52 44 33 27 23 18 10 9 14 14 11 13 12 15 24 27 26 24
10 12 16 11 9 13 12 9 14 7 14 13 9 22 30 42 48 51 51 54 57 59 62 63 63 60 52 44 35 30 25 16 12 13 18 15 12 11 10 15 23 28 25 23
14 7 12 6 14 14 10 6 9 10 14 8 5 11 33 47 54 56 53 53 57 61 61 61 61 59 51 43 34 29 25 18 13 20 22 16 14 13 17 22 23 25 23 19
5 7 6 13 3 7 9 9 15 8 11 13 4 15 23 38 48 51 48 46 49 57 58 58 58 56 49 38 31 28 27 20 16 25 21 15 13 14 19 17 21 20 21 18
10 8 7 1 8 12 11 14 14 12 5 4 6 1 13 28 38 41 38 38 44 49 54 58 60 55 48 38 31 31 30 21 19 24 20 16 16 16 18 19 22 16 20 21
6 11 12 15 6 7 7 7 15 18 13 12 16 3 11 26 36 40 43 41 43 50 52 52 56 50 41 38 31 33 29 23 17 16 15 17 19 21 19 20 19 20 21 20
4 5 11 9 5 6 9 17 8 30 18 30 12 14 14 16 36 38 38 38 40 37 42 43 47 47 42 33 27 22 25 22 24 16 17 17 16 23 19 15 16 16 18 16
4 7 2 7 9 14 9 9 9 11 17 30 27 10 11 16 26 32 36 37 32 33 36 39 44 42 32 24 16 24 26 25 21 22 20 18 19 19 16 15 12 16 15 16
10 9 7 8 12 17 17 7 6 7 4 18 24 18 18 21 23 28 31 31 30 32 38 44 41 31 22 18 24 29 31 27 21 21 20 20 24 15 4 5 6 11 13 19
7 5 9 12 12 12 11 11 7 4 8 17 24 22 18 19 22 27 29 31 35 42 49 45 35 23 14 18 23 24 26 23 21 21 23 23 15 14 12 14 13 15 17 23
6 13 14 7 4 7 1 8 12 18 16 18 16 17 19 23 27 30 35 41 45 45 39 30 24 21 21 17 13 17 21 26 20 16 13 12 12 11 11 15 14 16 19 22
8 7 2 5 10 2 4 10 17 20 23 23 16 18 24 29 31 40 48 49 44 33 26 25 24 23 20 13 6 10 20 20 15 11 14 13 10 8 12 11 12 16 21 26
4 7 19 25 19 4 7 15 20 24 20 25 23 20 28 41 45 46 43 39 29 29 28 24 20 24 18 9 6 10 16 12 14 13 14 12 12 6 13 10 11 15 17 20
21 15 15 8 8 7 13 20 22 25 25 25 24 30 37 43 44 37 32 28 29 28 25 19 21 21 17 11 12 10 8 12 12 15 9 8 9 7 12 10 14 17 22 20
18 16 10 18 11 14 24 29 28 27 27 30 30 36 37 39 37 31 32 30 28 25 21 18 20 20 14 7 5 7 2 3 10 14 10 8 7 10 10 14 17 21 24 23
8 18 17 18 7 18 31 31 27 31 31 33 35 36 34 32 33 34 32 28 26 22 17 16 16 13 8 11 10 5 7 9 8 11 15 7 12 14 13 21 21 21 21 25
18 8 12 11 6 25 31 22 19 28 32 33 37 38 36 36 33 32 29 26 20 15 12 11 11 14 15 10 7 7 8 9 6 10 6 11 13 16 19 21 24 22 25 23
22 28 10 1 15 30 24 24 27 22 28 33 37 37 36 34 30 32 28 24 22 18 14 12 13 11 11 12 11 10 11 15 13 13 9 10 13 18 23 19 19 27 21 12
26 15 7 9 6 21 24 27 25 21 28 33 37 37 33 30 29 29 25 22 17 11 9 11 10 8 9 10 9 8 8 12 14 13 15 15 14 21 19 20 21 19 11 12
33 27 20 10 11 21 24 26 23 26 31 34 37 37 36 32 29 27 22 16 11 8 9 8 4 6 10 9 9 12 10 8 8 11 14 17 21 21 26 20 19 18 19 16
33 33 35 19 17 22 24 24 27 31 32 33 34 35 33 31 29 26 25 17 15 12 10 7 6 10 5 4 7 8 7 3 10 14 17 23 25 23 21 17 23 25 18 9
16 30 29 23 25 29 29 28 32 34 33 36 33 31 34 34 34 27 14 13 14 9 6 4 3 7 2 2 3 5 3 8 16 20 15 17 22 27 25 22 26 16 14 11
29 33 27 26 20 30 38 38 37 31 36 37 34 30 33 32 29 23 21 21 10 3 2 2 4 3 9 12 7 2 11 19 12 11 16 23 29 30 27 24 26 25 17 22
33 38 41 26 33 41 47 45 36 30 34 34 30 29 32 36 28 22 18 13 5 2 4 2 3 5 10 9 1 8 12 11 11 19 25 27 28 27 26 28 32 32 25 9
35 38 37 40 46 46 46 48 43 41 40 38 34 32 31 21 21 28 18 8 4 2 4 1 14 16 16 15 12 13 15 17 22 26 22 16 25 33 32 21 30 5 3 1
35 37 41 53 52 52 53 53 52 50 47 45 41 40 30 33 28 20 17 7 7 15 15 27 26 20 14 9 6 8 15 23 27 30 18 22 24 29 30 30 11 10 9 10
27 42 54 60 56 57 57 56 58 55 48 49 51 44 37 33 24 16 12 8 18 18 20 22 13 6 8 11 12 16 25 32 23 20 19 16 21 27 28 20 14 18 18 17
Wind_Direction_850mb
216 195 198 127 146 160 180 187 166 251 203 249 254 224 190 185 178 181 190 198 204 205 204 205 208 210 207 210 213 219 224 224 259 244 204 205 236 269 286 320 330 328 327 329
250 167 194 227 228 186 218 182 245 243 274 241 286 152 169 188 184 184 197 203 206 211 209 207 210 210 208 211 215 219 220 222 259 225 199 215 238 262 297 320 330 331 330 324
250 168 114 338 211 199 213 189 151 189 232 157 267 230 191 192 201 203 207 207 210 214 213 212 213 208 211 210 213 215 213 218 250 209 209 228 252 278 296 303 321 334 335 336
176 86 153 239 5 211 194 210 206 256 243 205 271 246 243 221 210 212 214 215 219 220 218 218 216 208 208 209 208 215 209 220 219 211 218 234 265 286 299 319 321 333 348 331
147 157 268 102 200 177 168 237 201 218 187 156 112 347 285 231 229 228 222 222 224 223 221 219 214 207 203 205 208 207 210 213 208 210 217 242 270 297 303 323 320 320 330 323
153 124 179 231 217 163 95 306 234 197 187 159 142 123 250 220 218 222 225 222 218 219 218 215 209 199 205 203 212 214 211 207 195 197 234 257 267 290 290 310 318 324 326 324
126 132 277 241 222 120 109 241 291 203 201 173 189 214 291 231 211 218 222 216 216 216 217 214 197 195 198 207 223 221 208 208 211 230 248 267 274 298 286 297 317 321 332 332
97 84 201 165 96 157 219 286 265 218 207 209 208 240 234 192 200 207 208 204 207 203 200 193 191 192 196 214 213 203 205 211 234 241 252 261 280 289 294 285 292 323 327 341
167 219 289 250 241 272 280 252 249 235 218 181 189 167 154 170 184 189 197 193 193 192 178 172 176 187 201 199 198 199 205 218 233 235 249 270 283 255 260 283 291 319 341 337
50 254 252 284 270 262 254 249 184 170 151 165 162 144 148 159 166 169 174 175 168 165 160 162 173 182 176 187 190 205 222 222 223 238 255 269 251 231 254 273 293 297 318 331
271 284 287 255 342 311 92 165 140 113 112 145 142 139 142 146 151 157 153 150 152 157 158 162 168 165 160 168 195 208 212 216 226 248 243 215 206 252 267 281 309 324 319 313
212 265 230 285 328 21 146 144 123 98 121 126 111 127 139 135 141 146 145 147 150 147 149 149 148 155 159 168 200 215 205 209 225 209 193 210 254 270 295 276 262 284 288 312
286 356 295 296 314 251 193 152 128 107 113 127 115 123 134 132 140 145 146 148 146 137 134 135 142 158 159 143 113 160 186 209 199 202 213 250 281 265 296 277 313 320 312 312
288 285 302 314 308 202 186 148 132 119 117 114 117 133 138 138 143 146 146 141 139 138 137 136 146 156 163 151 139 128 167 206 221 209 231 261 267 308 308 313 313 324 321 312
264 241 231 324 309 187 171 151 136 134 134 134 136 140 145 142 141 140 144 146 153 153 148 149 155 164 169 176 207 192 259 341 222 205 253 253 280 277 304 313 321 326 327 326
337 242 261 272 200 185 172 154 147 150 148 145 146 150 143 136 139 145 149 157 167 171 167 162 157 173 190 231 214 250 238 226 249 248 258 245 256 291 298 306 310 314 323 329
220 222 228 181 184 196 189 156 155 153 155 155 162 156 149 150 147 150 157 165 165 149 158 176 177 199 212 234 216 254 237 219 269 271 256 257 274 285 305 313 298 309 315 332
250 245 235 166 192 193 178 179 169 153 164 167 170 166 163 163 157 157 161 161 167 179 194 205 207 227 238 219 232 241 245 241 253 259 276 287 277 285 308 315 334 324 326 351
262 240 232 239 247 197 189 176 169 171 172 177 175 174 168 165 160 161 165 168 176 189 205 202 216 231 197 191 239 249 269 249 237 252 258 284 270 278 317 324 317 328 332 336
253 246 243 225 175 181 180 176 172 173 173 175 174 169 169 168 168 167 163 155 146 150 146 155 147 160 176 189 220 246 270 242 240 264 261 266 290 299 310 315 321 326 323 323
257 250 232 220 180 173 181 177 170 168 168 173 170 168 167 166 170 166 161 163 146 127 124 135 117 144 143 244 262 273 241 282 306 293 280 282 297 311 313 307 316 306 287 249
245 214 219 199 178 174 171 169 166 163 162 165 164 158 163 166 166 157 148 150 127 97 74 143 129 184 248 321 255 230 238 282 300 299 318 332 328 314 316 299 303 321 282 261
220 219 220 194 189 178 169 167 164 166 162 162 160 158 164 167 165 160 159 157 132 38 37 212 217 272 292 288 203 165 303 321 316 2 341 310 314 312 299 291 281 280 264 258
233 216 210 216 187 176 168 163 162 165 161 161 162 156 163 160 154 150 141 145 158 75 322 227 174 96 91 82 9 327 36 25 345 340 325 324 317 332 305 311 295 297 299 309
226 220 210 200 187 179 171 161 161 167 167 162 153 154 154 157 146 141 153 141 114 56 6 191 133 117 88 71 57 23 347 329 322 319 311 334 336 319 317 314 304 280 17 49
221 213 199 197 187 177 171 165 165 167 165 160 152 148 150 147 137 146 151 110 78 91 84 126 122 101 76 65 12 347 347 353 352 336 349 345 328 352 9 6 15 41 58 23
203 202 191 184 179 175 171 167 167 166 165 157 149 149 150 153 147 138 134 123 134 114 102 132 135 72 9 344 348 3 1 344 352 354 355 21 29 31 9 10 29 50 33 5